Regional Weather Roundup
Issued by NWS Cleveland, OH

Home | Current Version | Previous Version | Graphics & Text | Print | Product List | Glossary On
Versions: 1 2 3 4 5 6 7 8 9 10 11 12 13 14 15 16 17 18 19 20 21 22 23 24 25 26 27 28 29 30 31 32 33 34 35 36 37 38 39 40 41 42 43 44 45 46 47 48 49 50
000
ASUS41 KCLE 222310
RWRCLE
OHIO REGIONAL WEATHER ROUNDUP
NATIONAL WEATHER SERVICE CLEVELAND, OH
700 PM EDT WED OCT 22 2014

NOTE: "FAIR" INDICATES FEW OR NO CLOUDS BELOW 12,000 FEET WITH NO
SIGNIFICANT WEATHER AND/OR OBSTRUCTIONS TO VISIBILITY.

OHZ001>008-015>018-024>027-034-035-043-044-230000-
   NORTHWEST OHIO

CITY           SKY/WX    TMP DP  RH WIND       PRES   REMARKS
DEFIANCE       PTCLDY    47  39  74 N3        30.30S
FINDLAY        PTCLDY    47  40  76 W6        30.27S
TOLEDO EXPRESS CLOUDY    51  40  65 W6        30.28S
TOLEDO EXEC    PTCLDY    51  39  63 CALM      30.28S
LIMA           CLOUDY    48  40  73 N3        30.28S
$$

OHZ009>014-019>023-028>033-038-089-230000-
   NORTHEAST OHIO

CITY           SKY/WX    TMP DP  RH WIND       PRES   REMARKS
CLE-HOPKINS    MOCLDY    50  42  74 N5        30.27S
CLE-LAKEFRONT  CLOUDY    53  42  66 N12       30.24S
CUY CO. ARPT   MOCLDY    52  45  76 CALM      30.24F
LORAIN-ELYRIA  CLOUDY    48  43  82 N3        30.26S
ASHTABULA      PTCLDY    47  41  80 CALM      30.23S
AKRON-CANTON   CLOUDY    49  41  74 N8        30.22S
WOOSTER        CLOUDY    49  42  77 N5        30.24F
MANSFIELD      CLOUDY    48  41  76 N5        30.25S
YOUNGSTOWN     MOCLDY    47  41  80 N9        30.21S
$$

OHZ042-051>053-060>062-070>072-077>081-230000-
  SOUTHWEST OHIO

CITY           SKY/WX    TMP DP  RH WIND       PRES   REMARKS
CINC-COVINGTON MOCLDY    52  38  58 E9        30.25F
CINC-LUNKEN    CLOUDY    51  40  65 NE7       30.28S
HAMILTON       CLOUDY    51  42  71 E5        30.28S
DAYTON         CLOUDY    49  41  74 NE10      30.28S
WRIGHT-PAT AFB CLOUDY    49  41  74 N7        30.27S
DAYTON GENERAL CLOUDY    50  41  71 NE8       30.26S
WILMINGTON     CLOUDY    48  40  73 NE10      30.26S
$$

OHZ036-037-039>041-045>050-054>059-063>069-073>076-082>088-230000-
  CENTRAL AND SOUTHEAST OHIO

CITY           SKY/WX    TMP DP  RH WIND       PRES   REMARKS
COLUMBUS       CLOUDY    50  41  71 N8        30.25R
OSU AIRPORT    CLOUDY    49  42  77 NW7       30.25S
BOLTON FIELD   CLOUDY    48  43  81 NW7       30.26S
RICKENBACK AFB CLOUDY    49  41  72 NW6       30.25R
NEWARK         CLOUDY    50  39  66 N6        30.24S
MARION         CLOUDY    49  41  74 N8        30.26S
LANCASTER      CLOUDY    50  41  71 CALM      30.25R
ZANESVILLE     CLOUDY    48  40  73 N6        30.22F
NEW PHILLY     CLOUDY    50  42  74 NW7       30.23R
$$



USA.gov is the U.S. government's official web portal to all federal, state and local government web resources and services.